This is the latest recevied weather packets stored in our database for station/object KA9CBS. If no packets are shown the sender has not sent any weather packets the latest 10 day(s).
| Time | Temp. | Humidity | Pressure | Rain* | Wind** | Luminosity | Snow |
|---|---|---|---|---|---|---|---|
| 1777335743 | 26.11° C | 79% | 1005.2 hPa | 0 mm | - | 8 W/m² | - |
| 1777335440 | 26.11° C | 80% | 1004.9 hPa | 0 mm | - | 7 W/m² | - |
| 1777335138 | 25.56° C | 81% | 1004.5 hPa | 0 mm | - | 11 W/m² | - |
| 1777334835 | 25.56° C | 81% | 1004.8 hPa | 0 mm | - | 18 W/m² | - |
| 1777334533 | 25.56° C | 82% | 1005 hPa | 0 mm | - | 24 W/m² | - |
| 1777334229 | 25.56° C | 82% | 1005.1 hPa | 0 mm | - | 33 W/m² | - |
| 1777333929 | 25.56° C | 81% | 1005.1 hPa | 0 mm | - | 38 W/m² | - |
| 1777333627 | 26.11° C | 80% | 1005.2 hPa | 0 mm | - | 43 W/m² | - |
| 1777333322 | 26.11° C | 80% | 1005.3 hPa | 0 mm | - | 46 W/m² | - |
| 1777333021 | 25.56° C | 81% | 1005.3 hPa | 0 mm | - | 53 W/m² | - |
| 1777332719 | 25.56° C | 82% | 1005.4 hPa | 0 mm | - | 52 W/m² | - |
| 1777332415 | 25.56° C | 82% | 1005.7 hPa | 0 mm | - | 57 W/m² | - |
| 1777332111 | 25.56° C | 81% | 1005.7 hPa | 0 mm | - | 45 W/m² | - |
| 1777331809 | 25.56° C | 81% | 1005.7 hPa | 0 mm | - | 34 W/m² | - |
| 1777331505 | 25.56° C | 81% | 1005.8 hPa | 0 mm | - | 33 W/m² | - |
| 1777331204 | 25.56° C | 82% | 1005.7 hPa | 0 mm | - | 19 W/m² | - |
| 1777330900 | 25.56° C | 81% | 1005.8 hPa | 0 mm | - | 21 W/m² | - |
| 1777330597 | 26.11° C | 81% | 1006 hPa | 0 mm | - | 48 W/m² | - |
| 1777330294 | 26.11° C | 80% | 1006 hPa | 0 mm | - | 83 W/m² | - |
| 1777329986 | 26.11° C | 81% | 1006.2 hPa | 0 mm | - | 122 W/m² | - |
| 1777329686 | 26.11° C | 80% | 1006.2 hPa | 0 mm | - | 44 W/m² | - |
| 1777329383 | 26.11° C | 80% | 1006.3 hPa | 0 mm | - | 76 W/m² | - |
| 1777329080 | 26.11° C | 80% | 1006.4 hPa | 0 mm | - | 94 W/m² | - |
| 1777328778 | 26.11° C | 79% | 1006.3 hPa | 0 mm | - | 129 W/m² | - |
| 1777328475 | 26.11° C | 79% | 1006.3 hPa | 0 mm | - | 149 W/m² | - |
* Rain latest hour (hover to see other rain measurements)
** Current wind speed in m/s (hover to see current wind gust speed)